Meteo Giornale » Osservazioni meteo Italia » Pratica Di Mare

ore: 07:55 - Osservazioni Meteo Pratica Di Mare
Lat. 41° 39' N Lon. 12° 27' E Alt. 6 metri s.l.m.

nuvoloso Europe/Rome

10 °C

Nuvoloso

Temp. 24 Ore

8 °C

14 °C

Est

20.3 Km/h

Dew point 4 °C

Umidità 66 %

Visibilità  10 Km

Il sole sorge alle ore 07:32

Il sole tramonta alle ore 17:08

Data e Ora Cielo e Fenomeni T °C DP °C Um. % Pres. hPa Vis. km Vento km/h
Oggi h: 07:55 nuvoloso Nuvoloso 10 4 66 1019 10 E 20.3
Oggi h: 06:55 nuvoloso Nuvoloso 10 4 66 1019 10 E/SE 20.3
Oggi h: 05:55 nuvoloso Nuvoloso 10 2 57 1019 10 E 22.2
Oggi h: 04:55 nuvoloso Nuvoloso 9 3 66 1020 10 E 18.5
Oggi h: 03:55 nuvoloso Nuvoloso 8 5 81 1020 10 E 22.2
Oggi h: 02:55 nuvoloso Nuvoloso 8 3 70 1021 10 E 18.5
Oggi h: 01:55 nuvoloso Nuvoloso 8 4 75 1022 10 E 18.5
Oggi h: 00:55 nuvoloso Nuvoloso 8 4 75 1022 10 E 18.5
Ieri h: 23:55 sereno Sereno 8 4 75 1022 10 E 16.7
Ieri h: 22:55 sereno Sereno 8 4 75 1022 10 E 16.7
Ieri h: 21:55 poco_nuvoloso Poco Nuvoloso 8 4 75 1022 10 E 14.8
Ieri h: 19:55 nuvoloso Nuvoloso 9 3 66 1022 10 E/SE 9.3
Ieri h: 18:55 nuvoloso Nuvoloso 10 4 66 1022 10 E/SE 7.4
Ieri h: 17:55 nuvoloso Nuvoloso 10 4 66 1022 10 N 5.5
Ieri h: 16:55 nuvoloso Nuvoloso 12 4 57 1022 10 S/SO 13
Ieri h: 15:55 nuvoloso Nuvoloso 14 4 50 1022 10 S/SO 14.8
Ieri h: 14:55 nuvoloso Nuvoloso 14 4 50 1022 10 S/SO 13
Ieri h: 13:55 nuvoloso Nuvoloso 14 4 50 1022 10 S/SO 14.8
Ieri h: 12:55 nuvoloso Nuvoloso 13 5 58 1023 10 S/SE 14.8
Ieri h: 11:55 nuvoloso Nuvoloso 13 4 54 1024 10 E/SE 14.8
Ieri h: 10:55 molto_nuvoloso Molto Nuvoloso 13 4 54 1024 10 E/SE 16.7
Ieri h: 09:55 nuvoloso Nuvoloso 11 3 57 1024 10 E 16.7
Ieri h: 08:55 nuvoloso Nuvoloso 9 3 66 1023 10 E 18.5
Ieri h: 07:55 nuvoloso Nuvoloso 8 2 65 1023 10 E 16.7